Weather in Charikar

Afghanistan     35°00′48″N   69°10′11″E
temp.,
°C
wind,
m/s
gust,
m/s
humid.,
%
clouds,
%
prec.,
mm/h
press.,
hPa
HPBL,
m
22 january, fri
fri2201:30+1wnw01208 0.0 101822
04:30−1nw012237 0.0 101922
07:300nw11250 0.0 102122
10:30+7ne121330 0.0 1020464
13:30+7se442173 0.1 1018845
16:30+2nnw355172 0.9 1021499
19:30−1n5731100 1.8 1026702
22:30−2nnw583399 1.9 1030480
23 january, sat
sat2301:30−4nnw583431 0.0 1032229
04:30−5nnw583316 0.0 1032220
07:30−5nw58300 0.0 1034252
10:30+1nw79180 0.0 10301065
13:30+3nnw810150 0.0 10271505
16:30+1nnw79170 0.0 1028527
19:30−3nnw45220 0.0 103297
22:30−3nnw33230 0.0 103151
24 january, sun
sun2401:30−3nw23240 0.0 102935
04:30−4nw22270 0.0 102828
07:30−4wsw12300 0.0 102926
10:30+2s22210 0.0 1025297
13:30+5sse22210 0.0 1022398
16:30+4se11300 0.0 102254
19:300nne11320 0.0 102522
22:30−1nnw11290 0.0 102623
25 january, mon
mon2501:30−2nw112414 0.0 102522
04:30−3nw012238 0.0 102422
07:30−3nw012071 0.0 102522
10:30+5sse111143 0.0 1023452
13:30+6sse211383 0.0 1020527
16:30+5sse112286 0.0 102122
19:300wsw01278 0.0 102422
22:30−1n11274 0.0 102624
26 january, tue
tue2601:30−2n12230 0.0 102624
04:30−3nw12200 0.0 102624
07:30−3nw12200 0.0 102724
10:30+4ssw11130 0.0 1024507
13:30+6sse21140 0.0 1021721
16:30+5sse11210 0.0 102147
19:30+1n22250 0.0 102525
22:30−1nnw22210 0.0 102624